When you browse on this site, cookies collect data to enhance your experience and personalize the content and advertising you see.
Visit our Privacy Policy to learn more. By continuing to use the site, you agree to this use of cookies and data.
EN

Hourly Weather Punta Cana

Today, 11 August, Tuesday

Time Temperature Precipitation Wind Pressure Humidity
00:00 +28°C° 0.3 mm 6 mps 761 mmHg 86%
01:00 +28°C° 0.3 mm 6 mps 760 mmHg 86%
02:00 +28°C° 0.4 mm 5 mps 760 mmHg 87%
03:00 +27°C° 0.4 mm 5 mps 760 mmHg 87%
04:00 +27°C° 0.4 mm 5 mps 760 mmHg 88%
05:00 +28°C° 0.3 mm 4 mps 760 mmHg 86%
06:00 +29°C° 0.3 mm 4 mps 761 mmHg 84%
07:00 +29°C° 0.3 mm 4 mps 761 mmHg 82%
08:00 +30°C° 0 mm 4 mps 761 mmHg 76%
09:00 +32°C° 0 mm 4 mps 761 mmHg 70%
10:00 +33°C° 0 mm 4 mps 762 mmHg 64%
11:00 +34°C° 0 mm 4 mps 761 mmHg 64%
12:00 +34°C° 0 mm 4 mps 761 mmHg 64%
13:00 +34°C° 0 mm 4 mps 761 mmHg 64%
14:00 +33°C° 0.1 mm 5 mps 761 mmHg 67%
15:00 +33°C° 0.1 mm 5 mps 760 mmHg 70%
16:00 +32°C° 0.1 mm 5 mps 760 mmHg 72%
17:00 +30°C° 0 mm 5 mps 760 mmHg 77%
18:00 +29°C° 0 mm 5 mps 760 mmHg 81%
19:00 +28°C° 0 mm 5 mps 760 mmHg 85%
20:00 +28°C° 0.1 mm 5 mps 761 mmHg 86%
21:00 +28°C° 0.1 mm 5 mps 761 mmHg 86%
22:00 +28°C° 0.1 mm 5 mps 762 mmHg 87%
23:00 +28°C° 0.2 mm 5 mps 761 mmHg 87%

Tomorrow, 12 August, Wednesday

Time Temperature Precipitation Wind Pressure Humidity
00:00 +28°C° 0.2 mm 5 mps 761 mmHg 87%
01:00 +28°C° 0.2 mm 5 mps 761 mmHg 88%
02:00 +28°C° 0.2 mm 5 mps 761 mmHg 88%
03:00 +27°C° 0.2 mm 4 mps 760 mmHg 89%
04:00 +27°C° 0.2 mm 4 mps 760 mmHg 89%
05:00 +28°C° 0 mm 4 mps 761 mmHg 86%
06:00 +29°C° 0 mm 5 mps 761 mmHg 82%
07:00 +30°C° 0 mm 5 mps 761 mmHg 79%
08:00 +30°C° 0 mm 5 mps 762 mmHg 75%
09:00 +32°C° 0 mm 5 mps 762 mmHg 72%
10:00 +33°C° 0 mm 6 mps 762 mmHg 68%
11:00 +33°C° 0 mm 6 mps 761 mmHg 67%
12:00 +34°C° 0 mm 6 mps 761 mmHg 66%
13:00 +34°C° 0 mm 6 mps 761 mmHg 65%
14:00 +33°C° 0.1 mm 6 mps 760 mmHg 69%
15:00 +33°C° 0.1 mm 6 mps 760 mmHg 73%
16:00 +32°C° 0.1 mm 6 mps 759 mmHg 77%
17:00 +30°C° 0.5 mm 6 mps 760 mmHg 80%
18:00 +30°C° 0.5 mm 6 mps 760 mmHg 84%
19:00 +29°C° 0.5 mm 6 mps 760 mmHg 88%
20:00 +29°C° 2.4 mm 6 mps 761 mmHg 88%
21:00 +29°C° 2.4 mm 6 mps 761 mmHg 89%
22:00 +29°C° 2.4 mm 5 mps 761 mmHg 90%
23:00 +28°C° 1 mm 5 mps 761 mmHg 90%

Day after tomorrow, 13 August, Thursday

Time Temperature Precipitation Wind Pressure Humidity
00:00 +28°C° 1 mm 5 mps 760 mmHg 91%
01:00 +28°C° 1 mm 4 mps 760 mmHg 91%
02:00 +28°C° 0.2 mm 4 mps 760 mmHg 91%
03:00 +28°C° 0.2 mm 4 mps 760 mmHg 91%
04:00 +28°C° 0.2 mm 4 mps 760 mmHg 91%
05:00 +29°C° 0.3 mm 4 mps 760 mmHg 90%
06:00 +29°C° 0.3 mm 4 mps 760 mmHg 88%
07:00 +30°C° 0.3 mm 5 mps 761 mmHg 86%
08:00 +32°C° 0.5 mm 5 mps 761 mmHg 83%
09:00 +32°C° 0.5 mm 5 mps 761 mmHg 79%
10:00 +33°C° 0.5 mm 5 mps 761 mmHg 76%
11:00 +33°C° 0 mm 5 mps 761 mmHg 72%
12:00 +34°C° 0 mm 5 mps 761 mmHg 69%
13:00 +34°C° 0 mm 5 mps 761 mmHg 66%
14:00 +33°C° 0 mm 5 mps 760 mmHg 68%
15:00 +33°C° 0 mm 5 mps 760 mmHg 71%
16:00 +32°C° 0 mm 4 mps 759 mmHg 73%
17:00 +30°C° 0 mm 4 mps 759 mmHg 78%
18:00 +29°C° 0 mm 4 mps 760 mmHg 82%
19:00 +28°C° 0 mm 5 mps 760 mmHg 87%
20:00 +28°C° 0 mm 5 mps 760 mmHg 86%
21:00 +29°C° 0 mm 5 mps 761 mmHg 86%
22:00 +29°C° 0 mm 5 mps 761 mmHg 86%
23:00 +29°C° 0 mm 5 mps 760 mmHg 86%

14 August, Friday

Time Temperature Precipitation Wind Pressure Humidity
00:00 +28°C° 0 mm 5 mps 760 mmHg 87%
01:00 +28°C° 0 mm 5 mps 760 mmHg 87%
02:00 +28°C° 0 mm 5 mps 760 mmHg 88%
03:00 +28°C° 0 mm 6 mps 760 mmHg 88%
04:00 +28°C° 0 mm 6 mps 759 mmHg 88%
05:00 +29°C° 0 mm 5 mps 760 mmHg 85%
06:00 +29°C° 0 mm 5 mps 760 mmHg 82%
07:00 +30°C° 0 mm 5 mps 761 mmHg 79%
08:00 +32°C° 0.1 mm 5 mps 761 mmHg 75%
09:00 +33°C° 0.1 mm 5 mps 761 mmHg 72%
10:00 +33°C° 0.1 mm 4 mps 761 mmHg 68%
11:00 +34°C° 0.2 mm 4 mps 761 mmHg 68%
12:00 +34°C° 0.2 mm 5 mps 760 mmHg 68%
13:00 +34°C° 0.2 mm 5 mps 760 mmHg 68%
14:00 +33°C° 0 mm 5 mps 760 mmHg 69%
15:00 +33°C° 0 mm 6 mps 759 mmHg 71%
16:00 +32°C° 0 mm 6 mps 759 mmHg 72%
17:00 +30°C° 0.1 mm 6 mps 759 mmHg 76%
18:00 +30°C° 0.1 mm 7 mps 759 mmHg 80%
19:00 +29°C° 0.1 mm 7 mps 760 mmHg 84%
20:00 +29°C° 0.1 mm 6 mps 760 mmHg 85%
21:00 +29°C° 0.1 mm 6 mps 760 mmHg 86%
22:00 +28°C° 0.1 mm 6 mps 760 mmHg 86%
23:00 +28°C° 0.1 mm 6 mps 760 mmHg 87%

15 August, Saturday

Time Temperature Precipitation Wind Pressure Humidity
00:00 +28°C° 0.1 mm 6 mps 760 mmHg 87%
01:00 +28°C° 0.1 mm 6 mps 759 mmHg 87%
02:00 +28°C° 0.3 mm 6 mps 759 mmHg 88%
03:00 +28°C° 0.3 mm 6 mps 759 mmHg 88%
04:00 +28°C° 0.3 mm 5 mps 759 mmHg 89%
05:00 +28°C° 0.3 mm 5 mps 759 mmHg 86%
06:00 +29°C° 0.3 mm 6 mps 759 mmHg 83%
07:00 +30°C° 0.3 mm 6 mps 760 mmHg 80%
08:00 +32°C° 0.2 mm 6 mps 760 mmHg 77%
09:00 +32°C° 0.2 mm 6 mps 760 mmHg 73%
10:00 +33°C° 0.2 mm 5 mps 760 mmHg 70%
11:00 +33°C° 0 mm 5 mps 760 mmHg 67%
12:00 +34°C° 0 mm 5 mps 759 mmHg 64%
13:00 +34°C° 0 mm 5 mps 759 mmHg 61%
14:00 +33°C° 0 mm 5 mps 759 mmHg 63%
15:00 +33°C° 0 mm 5 mps 758 mmHg 65%
16:00 +32°C° 0 mm 5 mps 758 mmHg 67%
17:00 +30°C° 0.2 mm 5 mps 758 mmHg 74%
18:00 +29°C° 0.2 mm 5 mps 758 mmHg 81%
19:00 +28°C° 0.2 mm 5 mps 759 mmHg 87%
20:00 +28°C° 0.7 mm 5 mps 759 mmHg 87%
21:00 +28°C° 0.7 mm 5 mps 759 mmHg 87%
22:00 +28°C° 0.7 mm 5 mps 760 mmHg 88%
23:00 +28°C° 1.3 mm 4 mps 759 mmHg 88%

16 August, Sunday

Time Temperature Precipitation Wind Pressure Humidity
00:00 +28°C° 1.3 mm 3 mps 759 mmHg 89%
01:00 +27°C° 1.3 mm 2 mps 759 mmHg 89%
02:00 +27°C° 0.3 mm 2 mps 759 mmHg 89%
03:00 +27°C° 0.3 mm 2 mps 758 mmHg 88%
04:00 +27°C° 0.3 mm 1 mps 758 mmHg 88%
05:00 +28°C° 0 mm 1 mps 759 mmHg 86%
06:00 +28°C° 0 mm 1 mps 759 mmHg 85%
07:00 +29°C° 0 mm 1 mps 759 mmHg 83%
08:00 +30°C° 0 mm 1 mps 759 mmHg 77%
09:00 +31°C° 0 mm 2 mps 759 mmHg 71%
10:00 +34°C° 0 mm 2 mps 760 mmHg 66%
11:00 +34°C° 0.1 mm 2 mps 759 mmHg 64%
12:00 +34°C° 0.1 mm 3 mps 759 mmHg 62%
13:00 +35°C° 0.1 mm 3 mps 759 mmHg 61%
14:00 +34°C° 0 mm 3 mps 758 mmHg 62%
15:00 +33°C° 0 mm 3 mps 758 mmHg 63%
16:00 +32°C° 0 mm 2 mps 758 mmHg 64%
17:00 +31°C° 0 mm 2 mps 758 mmHg 69%
18:00 +29°C° 0 mm 2 mps 758 mmHg 74%
19:00 +28°C° 0 mm 2 mps 759 mmHg 79%
20:00 +28°C° 0 mm 2 mps 759 mmHg 81%
21:00 +28°C° 0 mm 2 mps 759 mmHg 82%
22:00 +28°C° 0 mm 2 mps 760 mmHg 83%
23:00 +28°C° 0 mm 2 mps 759 mmHg 83%
Show more